Погода в Юркине

Россия / Республика Марий Эл     56°30′51″N   46°12′55″E
темп.,
°C
ветер,
м/с
пор.,
м/с
влажн.,
%
обл.,
%
осадки,
мм/ч
давл.,
гПа
погр.,
м
18 апреля, вс
вс1800:00+3св27861 0.0 1024149
03:00+2св25910 0.0 102491
06:00+2всв25880 0.0 1024112
09:00+9всв36604 0.0 1024561
12:00+12св56478 0.0 10231548
15:00+11всв665360 0.0 10241698
18:00+6всв6107886 0.0 1026718
21:00+4всв5117087 0.0 1027622
19 апреля, пн
пн1900:00+2всв5116999 0.0 1028553
03:00+1всв41175100 0.0 1029502
06:00+1всв51274100 0.0 1029617
09:00+4в61048100 0.0 1030951
12:00+7в693599 0.0 10301620
15:00+8в6932100 0.0 10291752
18:00+6в4939100 0.0 1030906
21:00+2всв41255100 0.0 1031447
20 апреля, вт
вт2000:00+1в4135687 0.0 1031507
03:000в413605 0.0 1031385
06:000в412574 0.0 1031462
09:00+6вюв59420 0.0 1031865
12:00+9вюв69310 0.0 10301564
15:00+10вюв69280 0.0 10291570
18:00+8вюв5103811 0.0 10271136
21:00+4в41449100 0.0 1027547
21 апреля, ср
ср2100:00+4вюв5154994 0.0 1025731
03:00+4вюв71648100 0.0 1023865
06:00+3юв71649100 0.0 1021910
09:00+3юв71762100 0.6 1020974
12:00+1юв81994100 3.1 1019867
15:00+2юв81691100 7.1 1018898
18:00+2юв71591100 0.8 1018814
21:00+2ююв61592100 1.4 1018718
22 апреля, чт
чт2200:00+3ююв51394100 0.6 1018732
03:00+4ю41096100 0.6 1019438
06:00+4ю3996100 0.0 1021376
09:00+7ю488392 0.1 1021443
12:00+10ююз476580 0.1 10221361
15:00+11ю476687 0.3 10221191
18:00+9ююв3778100 0.4 1023259
21:00+6юв3993100 0.6 1024201